| time (UTC) | temp C | wind direction | speed KPH | gust KPH | rain 1hr cm | rain 24hr cm | rain mn cm | humidity % | barometer mb |
| 20260508164526 | 18 | 158 | 0.0 | 3.2 | 0.00 | 0.84 | 0.00 | 38 | 1017.1 |
| 20260508163018 | 18 | 290 | 0.0 | 4.8 | 0.00 | 0.84 | 0.00 | 42 | 1017.2 |
| 20260508161522 | 18 | 63 | 1.6 | 9.7 | 0.00 | 0.84 | 0.00 | 38 | 1017.4 |
| 20260508160010 | 18 | 164 | 0.0 | 9.7 | 0.00 | 0.84 | 0.00 | 45 | 1017.7 |
| 20260508154513 | 17 | 196 | 0.0 | 4.8 | 0.00 | 0.84 | 0.00 | 51 | 1017.9 |
| 20260508153014 | 17 | 209 | 0.0 | 3.2 | 0.00 | 0.84 | 0.00 | 56 | 1017.9 |
| 20260508151515 | 16 | 188 | 1.6 | 4.8 | 0.00 | 0.84 | 0.00 | 51 | 1017.9 |
| 20260508150017 | 16 | 163 | 3.2 | 6.4 | 0.00 | 0.84 | 0.00 | 56 | 1018.0 |
| 20260508141516 | 14 | 24 | 0.0 | 3.2 | 0.00 | 0.84 | 0.00 | 61 | 1018.3 |
| 20260508140013 | 14 | 299 | 1.6 | 6.4 | 0.00 | 0.84 | 0.00 | 64 | 1018.3 |
| 20260508134517 | 12 | 132 | 0.0 | 3.2 | 0.00 | 0.84 | 0.00 | 67 | 1018.2 |
| 20260508124515 | 9 | 170 | 0.0 | 0.0 | 0.00 | 0.94 | 0.00 | 96 | 1018.0 |
| 20260508121520 | 7 | 170 | 0.0 | 0.0 | 0.00 | 1.07 | 0.00 | 96 | 1017.9 |
| 20260508113020 | 6 | 170 | 0.0 | 0.0 | 0.00 | 1.24 | 0.00 | 95 | 1017.3 |
| 20260508111521 | 5 | 263 | 0.0 | 0.0 | 0.00 | 1.24 | 0.00 | 95 | 1016.8 |
| 20260508110020 | 5 | 263 | 0.0 | 0.0 | 0.00 | 1.24 | 0.00 | 95 | 1016.7 |
| 20260508104522 | 5 | 188 | 0.0 | 0.0 | 0.00 | 1.27 | 0.00 | 95 | 1016.4 |
| 20260508103021 | 5 | 125 | 0.0 | 0.0 | 0.00 | 1.27 | 0.00 | 94 | 1016.1 |
| 20260508090021 | 6 | 125 | 0.0 | 1.6 | 0.00 | 1.27 | 0.00 | 94 | 1015.6 |
| 20260508084512 | 6 | 125 | 0.0 | 0.0 | 0.00 | 1.30 | 0.00 | 94 | 1015.2 |
| 20260508083010 | 6 | 125 | 0.0 | 0.0 | 0.00 | 1.30 | 0.00 | 94 | 1015.2 |
| 20260508081507 | 7 | 125 | 0.0 | 0.0 | 0.00 | 1.30 | 0.00 | 94 | 1015.2 |
| 20260508074516 | 7 | 34 | 0.0 | 3.2 | 0.00 | 1.30 | 0.00 | 94 | 1014.9 |
| 20260508073016 | 7 | 15 | 0.0 | 6.4 | 0.00 | 1.30 | 0.00 | 93 | 1014.9 |
| 20260508071525 | 7 | 9 | 0.0 | 0.0 | 0.00 | 1.32 | 0.00 | 94 | 1014.9 |
| 20260508064514 | 7 | 360 | 0.0 | 0.0 | 0.00 | 1.32 | 0.00 | 94 | 1014.4 |
| 20260508063009 | 7 | 360 | 0.0 | 1.6 | 0.00 | 1.32 | 0.00 | 93 | 1014.4 |
| 20260508061522 | 8 | 158 | 0.0 | 0.0 | 0.00 | 1.37 | 0.00 | 93 | 1014.4 |
| 20260508060021 | 8 | 158 | 0.0 | 0.0 | 0.00 | 1.37 | 0.00 | 93 | 1014.5 |
| 20260508053020 | 8 | 158 | 0.0 | 0.0 | 0.00 | 1.42 | 0.00 | 93 | 1014.4 |
| 20260508051525 | 8 | 158 | 0.0 | 0.0 | 0.00 | 1.42 | 0.00 | 93 | 1014.2 |
| 20260508050015 | 8 | 158 | 0.0 | 0.0 | 0.00 | 1.45 | 0.00 | 93 | 1014.1 |
| 20260508044519 | 9 | 158 | 0.0 | 1.6 | 0.00 | 1.45 | 0.00 | 93 | 1014.1 |
| 20260508041520 | 9 | 163 | 0.0 | 3.2 | 0.00 | 1.47 | 0.00 | 92 | 1013.8 |
| 20260508040021 | 10 | 169 | 0.0 | 0.0 | 0.00 | 1.47 | 0.00 | 90 | 1014.1 |
| 20260508034519 | 10 | 169 | 0.0 | 0.0 | 0.00 | 1.47 | 1.47 | 89 | 1013.9 |
| 20260508031517 | 10 | 178 | 0.0 | 0.0 | 0.00 | 1.47 | 1.47 | 88 | 1014.1 |
| 20260508030020 | 11 | 178 | 0.0 | 0.0 | 0.00 | 1.52 | 1.47 | 84 | 1013.9 |
| 20260508024523 | 13 | 283 | 0.0 | 3.2 | 0.00 | 1.55 | 1.47 | 69 | 1013.5 |
| 20260508023024 | 13 | 310 | 0.0 | 3.2 | 0.00 | 1.55 | 1.47 | 69 | 1013.5 |
| 20260508021522 | 13 | 13 | 1.6 | 12.9 | 0.00 | 1.57 | 1.47 | 69 | 1013.3 |
| 20260508020017 | 13 | 321 | 1.6 | 8.0 | 0.00 | 1.60 | 1.47 | 67 | 1013.0 |
| 20260508014515 | 13 | 360 | 0.0 | 0.0 | 0.00 | 1.65 | 1.47 | 71 | 1012.9 |
| 20260508013011 | 15 | 11 | 0.0 | 12.9 | 0.00 | 1.70 | 1.47 | 64 | 1012.4 |
| 20260508011537 | 15 | 312 | 4.8 | 12.9 | 0.00 | 1.73 | 1.47 | 61 | 1012.2 |
| 20260508003024 | 16 | 338 | 4.8 | 16.1 | 0.00 | 1.80 | 1.47 | 63 | 1011.4 |
| 20260508000016 | 17 | 44 | 9.7 | 19.3 | 0.00 | 2.01 | 1.47 | 62 | 1011.0 |
| 20260507234522 | 17 | 352 | 4.8 | 12.9 | 0.00 | 2.03 | 1.47 | 64 | 1010.9 |
| 20260507233028 | 17 | 296 | 6.4 | 14.5 | 0.00 | 2.06 | 1.47 | 67 | 1010.6 |
| 20260507231506 | 17 | 99 | 0.0 | 0.0 | 0.00 | 2.06 | 1.47 | 89 | 1010.6 |
| 20260507230023 | 17 | 13 | 1.6 | 3.2 | 0.00 | 2.08 | 1.47 | 86 | 1010.1 |
| 20260507224524 | 17 | 27 | 1.6 | 12.9 | 0.00 | 2.11 | 1.47 | 85 | 1009.9 |
| 20260507223022 | 17 | 22 | 1.6 | 6.4 | 0.00 | 2.11 | 1.47 | 84 | 1009.6 |
| 20260507221516 | 18 | 138 | 0.0 | 4.8 | 0.00 | 2.11 | 1.47 | 85 | 1009.3 |
| 20260507220021 | 18 | 30 | 1.6 | 4.8 | 0.00 | 2.11 | 1.47 | 83 | 1009.1 |
| 20260507214510 | 18 | 15 | 4.8 | 12.9 | 0.00 | 2.11 | 1.47 | 83 | 1008.9 |
| 20260507211524 | 20 | 84 | 1.6 | 16.1 | 0.00 | 2.11 | 1.47 | 78 | 1008.1 |
| 20260507210024 | 23 | 40 | 8.0 | 22.5 | 0.00 | 2.11 | 1.47 | 65 | 1007.7 |
| 20260507203016 | 22 | 147 | 0.0 | 9.7 | 0.00 | 2.11 | 1.47 | 80 | 1007.2 |
| 20260507201516 | 22 | 144 | 0.0 | 9.7 | 0.00 | 2.11 | 1.47 | 85 | 1007.3 |
| 20260507200018 | 21 | 171 | 0.0 | 4.8 | 0.20 | 2.11 | 1.47 | 87 | 1007.2 |
| 20260507194524 | 20 | 155 | 0.0 | 1.6 | 0.84 | 2.11 | 1.47 | 90 | 1007.5 |
| 20260507193030 | 18 | 141 | 1.6 | 4.8 | 0.84 | 2.11 | 1.47 | 92 | 1007.8 |
| 20260507191526 | 18 | 146 | 3.2 | 9.7 | 0.84 | 2.11 | 1.47 | 89 | 1008.0 |
| 20260507190020 | 20 | 133 | 4.8 | 6.4 | 0.64 | 1.91 | 1.27 | 85 | 1008.1 |
| 20260507184521 | 22 | 185 | 0.0 | 8.0 | 0.00 | 1.27 | 0.64 | 75 | 1008.3 |
| 20260507183032 | 23 | 178 | 0.0 | 16.1 | 0.00 | 1.27 | 0.64 | 73 | 1007.8 |
| 20260507181512 | 23 | 107 | 6.4 | 12.9 | 0.00 | 1.27 | 0.64 | 73 | 1008.1 |
| 20260507180036 | 22 | 133 | 3.2 | 14.5 | 0.00 | 1.27 | 0.64 | 78 | 1008.1 |
| 20260507174531 | 22 | 260 | 1.6 | 8.0 | 0.00 | 1.27 | 0.64 | 81 | 1008.2 |
| 20260507173026 | 22 | 138 | 1.6 | 8.0 | 0.00 | 1.27 | 0.64 | 77 | 1008.4 |
| 20260507171527 | 22 | 131 | 1.6 | 9.7 | 0.00 | 1.27 | 0.64 | 79 | 1008.6 |
| 20260507170022 | 21 | 180 | 3.2 | 9.7 | 0.00 | 1.27 | 0.64 | 85 | 1008.7 |